Regional Weather Roundup
Issued by NWS Albany, NY

Home | Current Version | Previous Version | Graphics & Text | Print | Product List | Glossary Off
Versions: 1 2 3 4 5 6 7 8 9 10 11 12 13 14 15 16 17 18 19 20 21 22 23 24 25 26 27 28 29 30 31 32 33 34 35 36 37 38 39 40 41 42 43 44 45 46 47 48 49 50

170
ASUS41 KALY 241010
RWRALY

NEW YORK STATE HOURLY WEATHER ROUNDUP
NATIONAL WEATHER SERVICE ALBANY NY
600 AM EDT WED AUG 24 2016

NOTE: "FAIR" INDICATES FEW OR NO CLOUDS BELOW 12,000 FEET WITH NO
SIGNIFICANT WEATHER AND/OR NO OBSTRUCTIONS TO VISIBILITY.

NYZ032-033-038>043-046>054-057>066-NYZ062>081-082-084-241100-
EAST


CITY           SKY/WX    TMP DP  RH WIND       PRES   REMARKS
ALBANY         PTCLDY    59  57  93 CALM      30.26R
GLENS FALLS    CLEAR     55  53  93 CALM      30.26R
POUGHKEEPSIE   CLEAR     58  55  90 CALM      30.26R
NEWBURGH       CLEAR     61  57  88 CALM      30.29R
MONTGOMERY     CLEAR     57  56  96 S3        30.27R
WHITE PLAINS   CLEAR     61  59  93 NW5       30.26S
ISLIP          PTCLDY    66  61  84 SW3       30.26R
NEW YORK CITY  PTCLDY    72  59  63 SW3       30.26R
CENTRAL PARK     N/A     68  58  70 W3        30.29S
$$

NYZ005>009-017-018-044>046-055-056-241100-
CENTRAL


CITY           SKY/WX    TMP DP  RH WIND       PRES   REMARKS
FULTON         CLEAR     57  56  96 CALM      30.24R
SYRACUSE       NOT AVBL
ROME           CLEAR     56  55  97 SE3       30.27R
ELMIRA         CLOUDY    55  52  89 CALM      30.27S FOG
BINGHAMTON     CLEAR     59  54  83 CALM      30.29R
MONTICELLO     CLEAR     52  52 100 CALM      30.31R
$$

NYZ026>034-041>043-087-241100-
NORTH


CITY           SKY/WX    TMP DP  RH WIND       PRES   REMARKS
WATERTOWN      CLEAR     63  55  75 CALM      30.21R
FORT DRUM      NOT AVBL
MASSENA        CLEAR     62  56  80 SW3       30.20R
SARANAC LAKE   CLEAR     51  49  92 CALM      30.24S
PLATTSBURGH    CLEAR     62  56  80 S3        30.20R
$$

NYZ001>004-010>016-019>021-085-241100-
WEST


CITY           SKY/WX    TMP DP  RH WIND       PRES   REMARKS
NIAGARA FALLS  CLEAR     63  57  81 SE3       30.21S
BUFFALO        CLEAR     63  57  81 S7        30.22S
DUNKIRK        CLEAR     67  58  72 S9        30.22S
JAMESTOWN      CLEAR     57  54  88 S3        30.26S
WELLSVILLE     CLEAR     56  54  93 CALM      30.31S
ROCHESTER      PTCLDY    61  57  87 SW8       30.24R
PENN YAN       CLEAR     62  57  83 SW7       30.26R
$$

             KEY
       WCI = WIND CHILL INDEX
       VSB = VISIBILITY
       HX  = HEAT INDEX
$$




USA.gov is the U.S. government's official web portal to all federal, state and local government web resources and services.